Location: Dehesa de la Cepeda
(40.6574°N, 4.3013°W)
Time: 02:47:11
(UTC+00:00)

Courier 1B - Pass Details

Date: 09 August 2021
Orbit: 963 x 1209 km, 28.3° (Epoch: 17 September)

Event Time Altitude Azimuth Distance (km) Brightness Sun altitude
Rises 19:00:44 0° 257° (WSW) 4,054 11.9 3.1°
Reaches altitude 10° 19:03:56 10° 247° (WSW) 3,114 11.0 2.6°
Maximum altitude 19:10:26 30° 190° (S) 2,022 9.1 1.4°
Drops below altitude 10° 19:16:59 10° 133° (SE) 3,133 9.6 0.2°
Sets 19:20:13 0° 123° (ESE) 4,083 10.1 -0.4°
Enters shadow 19:20:19 - 123° (ESE) 4,115 10.1 -0.4°
